User: anonymous   Login
Location: ??
(35.5052°N, 139.7262°E)
Time: 05:02:42
(UTC+00:00)
Language:

Cosmos 1626 - Orbit

View from above orbital plane
View from above orbital plane
View from above satellite
View from above satellite

Ground track
Ground track

The orbit data is extracted from the following two-line orbital elements,

1 15494U 85009A   21263.09568388  .00000704  00000-0  26804-4 0  9991
2 15494  82.4778 129.8995 0002782  34.1033 326.0382 15.25075718  5399
Epoch (UTC): 20 September 2021 02:17:47
Eccentricity: 0.0002782
inclination: 82.4778°
perigee height: 488 km
apogee height: 492 km
right ascension of ascending node: 129.8995°
argument of perigee: 34.1033°
revolutions per day: 15.25075718
mean anomaly at epoch: 326.0382°
orbit number at epoch: 539

The dashed part of the orbit path shows where the satellite is in the earth's shadow,  

DLR